Regional Weather Roundup
Issued by NWS

Home | Current Version | Previous Version | Text Only | Print | Product List | Glossary On
Versions: 1 2 3 4 5 6 7 8 9 10 11 12 13 14 15 16 17 18 19 20 21 22 23 24 25 26 27 28 29 30 31 32 33 34 35 36 37 38 39 40 41 42 43 44 45 46 47 48 49 50
000
ASUS45 KBOI 270610
RWRID
WEATHER ROUNDUP FOR IDAHO
NATIONAL WEATHER SERVICE BOISE ID
1100 PM MST WED NOV 26 2014

NOTE: "FAIR" INDICATES FEW OR NO CLOUDS BELOW 12000 FEET
WITH NO SIGNIFICANT WEATHER AND/OR OBSTRUCTIONS TO VISIBILITY

IDZ012-014-270700-
SOUTHWEST IDAHO


CITY           SKY/WX    TMP DP  RH WIND       PRES   REMARKS
BOISE          CLOUDY    50  36  58 SE13      30.16F
CALDWELL       NOT AVBL
MOUNTAIN HOME  CLOUDY    46  44  91 E14       30.19F
$$

IDZ016-017-270700-
SOUTHCENTRAL IDAHO


CITY           SKY/WX    TMP DP  RH WIND       PRES   REMARKS
BURLEY         MOCLDY    49  29  46 S16       30.23F
JEROME         MOCLDY    44  31  60 SE7       30.24F
TWIN FALLS     MOCLDY    52  27  38 S14       30.23S
$$

IDZ019>023-270700-
SOUTHEAST IDAHO


CITY           SKY/WX    TMP DP  RH WIND       PRES   REMARKS
IDAHO FALLS    CLOUDY    41  32  70 VRB6      30.26S
POCATELLO      CLEAR     51  29  42 S12       30.25F
REXBURG        CLOUDY    38  30  73 SW7       30.25F WCI  33
$$

IDZ006-010-011-018-031-032-270700-
CENTRAL IDAHO MOUNTAINS


CITY           SKY/WX    TMP DP  RH WIND       PRES   REMARKS
MCCALL         CLOUDY    32  31  96 CALM      30.18S
HAILEY         PTCLDY    34  28  80 NW9       30.29S WCI  26
STANLEY          N/A     32  22  66 VRB3      30.24F
SALMON         CLOUDY    32  30  93 CALM      30.18F VSB<1/4
CHALLIS        MOCLDY    37  27  67 NW5       30.19S WCI  33
$$

IDZ002-004-006-007-026-270700-
NORTHERN IDAHO


CITY           SKY/WX    TMP DP  RH WIND       PRES   REMARKS
LEWISTON       CLOUDY    44  42  93 CALM      30.05S
LOWELL           N/A     40  39  97 CALM      30.16S
COEUR D`ALENE  CLOUDY    45  43  93 S9        29.98F
MULLAN PASS    LGT RAIN  35  34  96 VRB7G21   30.03F WCI  29
$$



USA.gov is the U.S. government's official web portal to all federal, state and local government web resources and services.